GFSNW_700_spd_000.txt.gz
Wind_Speed
28 25 26 31 23 15 11 3 10 21 21 37 41 38 30 26 21 15 13 13 13 11 7 11 18 19 12 5 9 14 21 13 22 34 28 21 26 31 34 17 9 13 16 35
28 23 19 23 22 15 13 9 10 14 37 36 36 30 25 24 19 23 17 14 15 14 14 10 15 13 14 13 16 7 13 12 10 9 19 24 28 34 37 35 20 24 8 16
25 23 17 20 21 8 8 21 13 25 49 12 33 31 29 20 21 13 15 12 18 13 11 15 10 12 7 6 8 15 22 22 23 16 13 10 20 32 39 35 26 32 36 38
25 19 14 20 21 6 15 11 30 40 47 28 32 27 20 22 14 15 16 16 15 11 10 14 21 24 20 22 22 17 20 28 29 35 36 32 25 19 32 41 41 24 39 35
27 15 11 18 18 12 15 14 22 35 29 33 29 28 16 19 12 9 14 17 9 10 19 20 9 7 13 15 14 18 26 32 27 32 32 34 42 38 29 29 40 46 46 43
25 14 8 8 9 20 16 11 16 31 18 35 30 31 26 14 11 7 9 9 8 8 13 11 15 16 13 11 18 24 26 27 15 15 19 15 23 40 42 37 33 34 36 18
21 12 3 3 4 8 19 5 22 30 27 34 30 22 20 21 14 14 7 6 10 12 13 13 13 16 22 21 21 26 29 32 14 15 13 3 8 11 18 35 33 28 34 23
19 11 3 3 4 7 20 7 26 25 26 28 32 19 14 14 12 13 12 12 14 16 12 14 5 9 18 19 20 22 18 28 8 5 7 10 14 10 5 25 32 30 27 19
16 12 1 5 9 12 13 9 14 11 32 27 28 26 18 11 10 9 14 11 13 13 12 9 4 4 5 3 4 6 9 9 14 9 4 4 13 7 10 5 7 7 16 14
14 11 6 8 10 13 15 11 11 20 17 25 21 28 23 16 16 13 11 11 14 14 16 12 10 6 6 3 4 4 7 7 10 10 5 3 8 6 11 7 8 6 17 19
15 10 8 12 13 10 15 15 16 20 23 15 24 18 14 12 16 13 11 12 8 8 12 11 10 10 9 8 8 4 5 3 4 4 4 2 4 1 2 9 8 12 12 13
17 13 8 13 13 15 17 20 19 18 15 12 13 15 16 16 14 13 14 10 11 6 13 9 10 7 6 9 4 8 5 9 2 5 2 2 5 4 5 4 4 8 15 15
18 15 10 12 17 19 20 17 17 19 16 16 14 13 17 15 15 12 12 14 11 13 15 10 12 6 6 5 7 9 6 9 9 5 4 5 5 5 5 1 4 8 14 14
18 16 12 12 21 21 23 25 20 17 13 10 6 12 12 13 12 10 11 11 12 12 17 16 15 13 9 10 8 6 7 8 7 8 10 8 7 7 7 2 3 6 10 12
20 17 13 11 23 24 27 24 24 19 13 8 9 8 10 12 12 11 9 9 9 13 15 18 30 23 15 15 19 23 14 12 9 5 6 12 9 9 7 5 4 5 5 6
21 20 14 16 22 28 26 25 23 23 19 11 5 7 10 10 8 6 7 6 12 13 15 14 18 26 25 13 16 20 18 13 11 8 3 13 10 12 11 8 4 5 6 7
23 18 16 18 25 31 30 26 28 23 18 17 5 9 10 12 9 6 5 6 14 9 19 9 24 28 22 28 33 26 14 12 14 13 9 11 13 8 12 14 9 6 5 8
24 19 17 16 25 32 31 28 21 24 19 14 7 7 7 3 3 8 6 6 7 7 14 8 7 16 21 24 18 17 21 20 14 14 14 12 12 16 11 10 9 8 9 10
21 15 10 12 22 25 29 24 24 24 23 13 11 13 3 3 5 7 7 5 7 6 9 17 10 17 17 6 9 7 7 14 16 20 15 14 11 12 12 10 10 11 12 12
19 9 5 10 19 29 26 17 20 22 29 22 23 16 14 7 4 2 4 5 4 5 5 9 19 29 21 18 10 7 8 8 6 14 18 17 13 11 10 11 12 13 12 9
13 2 6 10 30 28 17 15 17 18 14 22 31 26 19 10 7 3 2 3 4 4 5 6 7 16 9 12 16 13 10 11 11 13 15 15 12 5 12 14 17 17 15 12
13 5 7 15 20 9 8 15 11 9 12 11 19 23 26 18 12 6 4 5 4 5 5 5 6 10 11 12 16 16 14 10 11 12 13 14 16 15 12 12 12 13 12 11
5 6 10 11 7 5 6 9 7 8 6 13 15 13 16 19 14 8 6 5 6 5 6 6 7 7 8 16 14 20 25 22 17 13 13 13 15 17 15 13 14 13 14 10
3 3 3 1 1 4 3 2 6 8 7 5 3 15 18 17 12 8 6 7 5 5 6 5 5 5 8 10 11 15 20 20 23 20 16 15 15 17 18 17 13 12 11 11
2 1 2 3 7 7 5 1 10 12 13 11 12 14 16 17 8 8 8 6 6 7 4 1 2 2 5 11 12 13 13 17 20 22 20 17 16 18 18 18 16 15 13 11
4 3 1 3 7 6 3 6 11 15 14 13 19 14 8 11 8 10 13 7 7 4 6 4 4 4 4 4 9 13 14 15 18 20 20 19 19 18 18 18 17 16 14 14
1 9 11 11 11 7 3 6 15 15 19 27 16 12 10 10 11 16 16 24 19 7 4 6 6 5 6 6 6 9 12 14 17 19 19 20 20 21 20 16 15 15 15 13

GFSNW_700_spd_003.txt.gz
Wind_Speed
28 30 27 22 23 23 26 3 4 29 20 50 41 21 22 15 19 19 12 11 14 11 11 12 13 14 7 5 5 11 12 11 19 30 28 27 24 31 34 20 8 11 10 29
30 29 21 19 21 19 17 7 7 9 1 30 36 23 21 20 19 18 15 14 12 11 10 8 10 9 8 15 12 6 9 11 9 9 11 26 32 36 36 35 24 27 11 16
30 30 17 18 21 22 6 12 13 12 19 21 35 28 25 23 17 17 17 13 13 9 9 10 7 5 6 8 6 10 18 21 24 19 25 21 17 33 37 39 24 27 39 42
29 27 16 19 24 5 10 8 21 30 34 21 29 22 24 20 17 14 13 12 8 12 8 8 13 13 16 16 13 20 20 27 30 38 41 39 36 32 27 36 42 27 32 30
25 26 14 10 11 4 6 7 22 27 33 24 29 25 17 19 13 15 13 13 10 10 12 12 8 10 9 13 14 17 23 28 31 39 37 29 35 40 37 35 31 36 43 50
24 23 12 7 5 4 1 2 18 20 32 18 23 21 9 19 17 7 6 10 9 9 4 9 7 11 16 14 13 14 19 22 22 26 25 23 13 16 32 39 40 34 33 12
21 18 10 5 3 6 9 4 15 19 17 31 23 15 12 10 12 7 7 7 8 7 8 10 10 14 16 22 24 21 26 26 26 23 23 3 13 14 10 14 23 29 28 17
18 18 11 6 3 8 5 1 13 17 21 20 27 16 13 15 17 10 14 11 8 9 10 12 7 7 11 16 19 24 28 28 14 6 14 16 8 19 9 5 9 15 13 10
20 16 14 9 7 4 5 3 14 11 18 22 18 18 17 14 12 9 6 8 8 8 8 7 6 4 4 3 3 6 7 8 17 13 6 4 17 14 16 13 17 15 5 6
22 16 12 10 8 7 11 11 10 9 16 18 18 22 18 12 6 5 9 7 6 7 10 12 9 9 6 4 4 3 4 7 12 12 6 9 12 9 11 11 15 16 14 18
21 18 13 13 11 9 16 14 10 8 13 19 22 19 22 17 11 10 10 7 5 5 7 6 7 10 8 7 7 4 3 4 4 4 5 5 11 7 8 13 12 11 10 15
23 17 15 13 15 15 19 17 16 16 14 15 23 21 18 16 13 9 9 9 9 4 6 8 6 7 5 7 3 5 5 7 2 3 5 10 7 7 9 12 11 9 12 15
26 21 17 15 18 19 21 27 21 14 16 14 20 19 15 15 15 12 12 9 11 15 12 11 11 7 7 4 2 5 4 6 7 10 5 6 7 5 5 8 9 7 12 11
31 26 19 17 19 24 23 25 22 14 13 12 15 16 16 13 17 13 12 11 13 19 14 16 12 12 8 8 7 6 3 5 8 11 9 11 7 4 1 3 7 8 10 11
28 27 26 16 20 23 21 22 21 22 19 15 14 13 14 14 12 11 11 10 10 8 15 14 18 20 20 17 16 18 12 16 12 8 7 5 4 5 4 1 3 6 7 9
25 26 25 19 16 22 21 25 29 22 17 11 9 12 11 12 11 10 11 10 6 13 12 15 17 20 22 11 20 22 18 11 16 13 7 6 6 7 7 5 5 5 8 8
25 28 21 16 14 23 26 22 30 28 23 14 8 5 10 10 11 10 11 6 10 10 11 18 18 12 15 27 33 22 16 16 11 14 9 9 8 8 9 6 3 4 5 7
30 26 17 11 11 22 28 18 24 28 21 19 6 5 7 6 3 11 11 7 9 9 9 9 15 13 21 25 24 16 15 17 16 15 14 11 13 10 9 10 9 6 6 7
30 23 12 6 7 17 26 19 20 28 19 11 9 11 3 2 3 4 6 9 9 7 9 11 15 17 17 6 4 8 11 11 20 20 19 16 13 13 14 10 9 8 8 14
28 13 4 2 10 19 25 18 14 23 19 16 19 12 10 4 5 2 4 5 6 5 6 8 12 27 25 17 13 5 1 3 10 17 21 16 16 14 16 12 8 10 5 9
16 7 4 1 17 25 18 10 14 12 12 16 26 21 13 8 5 3 4 4 5 4 4 5 7 11 4 10 15 13 9 7 6 9 16 14 14 11 13 11 16 16 13 12
17 11 7 12 21 12 6 11 9 7 11 8 13 16 20 19 11 6 5 6 5 5 5 5 5 5 4 8 9 12 15 11 10 10 14 19 20 16 15 16 18 19 18 15
10 10 8 9 4 3 3 3 5 8 4 7 9 9 10 17 16 7 6 5 7 5 5 5 7 8 8 9 13 17 16 15 12 11 12 13 17 18 17 16 18 18 16 12
4 7 4 5 5 6 6 3 6 11 9 4 11 11 10 13 12 8 5 8 6 5 6 5 9 8 6 5 12 12 21 20 16 13 12 13 15 18 18 19 16 15 14 12
1 3 1 4 5 5 1 3 7 8 8 10 14 17 11 11 7 7 8 5 6 6 4 2 1 3 3 7 10 11 14 21 24 22 18 16 15 17 18 20 19 17 16 13
4 2 2 3 5 4 1 3 9 14 19 17 19 9 7 10 8 9 10 6 7 4 5 0 2 2 2 2 5 10 12 13 18 22 22 20 18 17 20 20 21 19 16 14
3 5 8 8 6 4 5 6 8 12 16 22 19 10 9 9 9 14 16 27 17 10 9 1 3 6 4 3 4 5 9 11 15 19 22 22 21 21 23 22 22 19 17 17

GFSNW_700_spd_006.txt.gz
Wind_Speed
31 29 24 18 20 25 27 24 4 13 14 19 20 24 31 23 22 17 13 9 9 11 14 17 14 13 12 10 12 15 17 9 13 22 18 19 21 24 27 18 12 12 17 35
27 25 20 20 22 25 30 17 14 25 21 10 22 20 25 24 18 14 11 9 8 9 11 7 13 8 13 13 12 5 11 10 7 8 6 9 20 26 36 39 29 28 14 31
25 22 18 19 23 28 25 9 10 23 24 13 26 19 18 18 13 12 9 9 9 10 10 12 6 8 7 9 12 14 12 14 18 16 25 22 23 26 28 34 26 32 37 47
22 20 17 17 16 13 7 9 13 20 19 21 21 19 16 16 15 10 9 8 9 9 9 8 12 11 11 10 12 15 13 22 25 33 35 35 37 37 36 33 38 29 42 31
19 20 17 15 13 12 9 13 16 10 14 22 25 18 18 14 10 7 8 5 7 7 9 9 5 8 12 10 14 25 25 23 24 36 34 26 33 36 30 34 38 39 36 40
17 16 15 15 10 11 15 11 15 14 11 18 20 22 14 13 9 6 9 11 9 10 5 7 11 15 17 17 12 14 17 16 19 18 18 32 14 19 12 15 22 31 35 18
18 13 12 13 8 7 11 7 12 13 12 17 16 13 6 11 13 4 4 11 9 6 6 9 9 11 16 17 19 19 19 18 20 24 24 4 16 22 12 11 11 15 26 15
20 11 9 8 4 2 3 5 12 13 20 17 15 16 10 10 14 7 5 8 6 7 9 9 7 5 6 6 12 18 23 22 13 6 13 16 8 22 14 7 11 25 8 3
26 13 9 8 4 3 5 6 8 11 18 19 15 18 11 12 12 11 9 12 12 8 8 7 5 4 2 1 2 7 11 18 27 9 5 3 13 18 15 8 9 19 9 6
33 18 11 10 9 9 11 9 12 7 8 12 16 16 17 13 9 7 7 6 4 8 9 11 7 6 4 2 4 4 4 13 20 18 8 10 10 12 10 10 13 11 11 8
37 27 15 13 14 14 15 13 13 11 11 12 14 17 18 15 8 5 5 6 3 4 7 5 6 7 6 6 8 4 6 7 9 6 6 5 12 8 11 13 10 6 5 13
39 28 21 14 16 17 16 17 16 14 12 12 19 18 20 19 16 11 8 7 6 3 4 4 5 6 5 6 4 8 7 10 4 7 6 13 9 6 9 13 7 8 11 11
37 27 20 18 15 19 20 19 18 19 16 11 16 24 19 18 15 16 10 10 9 10 13 11 9 10 6 5 7 8 8 9 8 8 6 11 6 4 5 10 7 9 11 8
35 22 20 22 14 18 23 21 24 21 13 15 16 19 23 20 16 15 12 13 12 12 15 17 12 11 10 10 10 10 7 6 6 11 8 11 5 3 0 5 6 6 3 7
30 19 22 24 17 13 22 22 27 25 17 12 15 19 19 16 13 14 13 11 10 9 12 12 17 15 18 21 21 24 14 14 15 8 8 8 4 4 3 3 6 6 5 4
23 23 26 24 16 10 16 18 21 26 21 9 14 13 12 13 14 13 12 11 11 8 12 20 18 16 15 12 24 25 16 12 9 11 13 7 5 7 6 6 7 7 8 7
24 28 29 20 14 10 20 21 27 24 22 12 11 7 13 12 11 12 11 12 10 10 16 16 16 18 11 29 32 18 18 16 16 13 10 8 8 7 7 7 7 7 8 8
31 31 22 13 8 12 23 25 23 26 22 16 6 5 11 10 9 11 11 10 10 13 16 18 13 12 18 22 14 10 14 17 15 11 14 12 12 9 11 8 8 5 5 6
31 20 8 2 6 15 22 26 18 24 17 13 11 8 6 8 3 5 3 6 10 15 17 17 12 18 17 3 3 6 9 12 15 16 20 18 14 13 10 9 8 6 4 8
24 15 11 6 6 18 26 17 13 24 14 15 12 13 6 4 1 1 2 4 6 8 11 11 15 26 13 20 15 9 4 5 7 17 22 20 15 12 14 12 10 8 7 8
21 13 7 7 17 24 14 6 7 9 7 15 18 15 7 4 3 1 2 3 5 5 5 6 7 7 3 8 22 24 12 8 6 11 18 18 15 11 14 17 14 10 11 10
17 14 21 20 9 7 4 7 6 5 7 5 11 14 16 14 10 5 5 5 5 5 7 6 6 3 6 5 9 15 17 14 9 8 11 21 20 16 16 18 12 14 15 13
10 12 7 5 5 5 2 2 7 8 9 9 8 9 13 15 16 8 6 6 7 6 5 6 7 7 8 5 9 11 19 16 11 11 11 12 16 17 17 19 18 18 17 16
6 2 4 3 3 4 4 6 12 13 8 10 18 14 9 8 10 8 5 7 6 5 6 11 12 10 8 5 8 12 15 15 13 13 12 13 15 18 18 19 17 17 18 13
4 3 1 1 3 5 4 4 7 12 14 7 12 16 10 8 6 6 7 5 6 7 5 7 5 6 6 3 6 7 9 15 15 13 12 11 12 16 18 18 20 19 17 15
5 5 4 4 3 2 3 4 6 9 10 9 15 8 7 9 6 7 7 6 7 2 4 4 4 5 7 6 3 8 11 12 17 20 18 15 14 15 18 19 22 21 18 16
2 6 10 8 6 4 2 6 7 10 11 14 14 9 9 7 9 10 11 9 8 5 5 5 4 3 6 8 7 4 8 14 16 13 16 20 18 19 21 23 23 23 23 21

GFSNW_700_spd_009.txt.gz
Wind_Speed
27 26 21 22 25 28 29 21 10 11 21 14 20 16 11 21 26 21 12 8 7 16 20 13 14 11 4 15 12 19 11 5 10 18 15 12 17 22 21 18 11 17 25 38
23 24 25 24 26 24 23 8 16 16 15 8 20 14 17 17 19 11 10 9 10 13 17 9 11 11 12 10 12 10 14 7 5 4 2 12 19 23 28 35 35 36 19 27
21 21 23 26 26 19 18 19 15 11 10 15 19 18 22 23 18 10 9 10 9 12 13 6 12 6 7 11 11 15 10 12 15 12 15 16 22 29 29 30 29 36 41 46
21 21 24 24 25 21 11 19 19 14 12 18 17 9 10 11 10 7 8 7 7 8 6 7 4 8 7 7 11 15 15 18 19 27 28 27 31 34 34 39 44 37 53 35
19 20 21 17 17 20 11 22 18 5 15 11 8 7 8 7 7 6 6 4 8 8 5 4 5 7 9 7 9 13 17 15 16 31 21 17 27 35 27 21 23 33 39 45
18 16 16 15 13 17 15 15 21 11 11 14 10 6 7 8 4 5 8 7 5 7 8 8 11 10 11 11 9 11 17 14 10 10 13 26 13 17 17 14 12 16 25 21
26 15 13 12 7 8 8 11 11 9 8 11 11 12 9 8 7 2 5 9 8 7 6 5 6 7 10 14 17 18 13 12 10 18 19 3 10 18 17 13 12 13 23 17
35 21 11 11 5 6 4 7 11 11 9 10 9 13 5 10 13 5 3 6 7 5 3 6 4 4 6 7 13 18 16 14 8 5 11 22 8 13 19 12 11 22 19 14
37 30 16 7 7 6 2 7 15 15 16 12 12 12 8 5 5 7 7 5 7 7 2 3 2 3 1 3 2 6 16 19 18 7 5 5 9 22 17 10 8 18 17 11
36 34 25 12 10 11 11 11 12 14 17 18 19 14 11 7 7 7 6 4 3 6 5 5 4 6 5 3 5 6 8 14 22 18 9 13 13 18 12 7 11 8 8 15
35 34 28 20 14 14 15 17 16 18 21 18 17 19 14 13 9 2 2 5 2 3 7 3 4 5 4 5 5 4 6 7 7 10 6 7 11 17 9 12 10 2 2 7
35 34 27 21 17 17 20 22 22 20 18 14 20 18 18 18 17 11 7 5 3 2 2 3 4 7 6 5 5 9 7 11 5 9 6 12 14 11 11 12 7 5 2 7
35 33 24 18 18 18 20 24 24 23 18 17 17 20 21 20 18 15 9 8 8 8 8 13 7 9 12 8 9 9 10 12 10 8 5 14 16 11 8 9 4 8 6 4
36 32 22 18 19 20 17 22 24 24 20 16 12 18 22 20 16 16 14 14 10 11 12 14 16 15 10 10 13 12 9 9 9 11 11 9 11 8 6 5 3 6 4 4
38 32 23 21 21 21 16 21 24 25 23 11 14 14 17 24 17 14 14 16 14 10 15 17 19 18 15 18 21 23 18 12 13 8 13 12 13 8 5 3 2 5 8 8
40 32 26 26 22 17 13 18 25 27 25 6 12 13 16 18 17 16 14 13 13 14 15 16 16 17 14 11 17 20 18 17 19 17 13 13 10 7 5 4 3 5 6 5
39 31 27 23 17 14 12 18 22 25 25 12 8 5 16 16 17 16 15 14 15 16 18 20 19 17 16 22 29 13 10 11 16 16 15 11 9 7 7 6 6 6 6 7
33 27 20 9 6 7 15 17 17 23 23 15 6 6 11 14 12 11 11 12 12 16 17 21 21 20 17 17 15 9 11 15 18 19 17 13 12 11 11 9 8 7 8 4
26 16 13 9 4 6 19 18 23 26 16 12 8 7 8 12 8 7 3 7 11 12 18 19 16 18 16 2 3 4 8 12 14 15 16 16 16 14 13 13 11 9 7 6
20 12 7 6 1 14 20 15 12 22 10 14 11 10 9 10 6 4 4 4 6 7 9 12 12 20 8 12 20 13 9 9 11 15 18 20 19 15 15 12 13 11 9 9
16 10 11 14 20 21 8 6 6 8 7 13 14 13 10 8 5 4 1 2 5 4 5 6 6 10 10 8 8 21 17 11 8 6 11 19 18 16 13 16 17 14 9 9
14 17 13 8 4 5 4 6 6 5 6 8 15 16 12 9 6 3 4 4 4 5 6 5 5 9 12 12 13 10 21 19 11 6 8 16 17 18 16 16 16 13 11 11
6 4 5 3 1 3 5 5 7 8 13 10 13 16 18 15 10 6 4 4 6 6 5 5 6 10 15 15 8 10 7 18 18 11 9 10 16 19 15 17 18 11 14 12
10 5 2 1 2 2 4 9 12 13 17 14 10 10 9 8 6 6 4 6 5 4 6 5 9 10 12 13 9 7 11 10 16 11 10 11 12 12 12 13 18 15 15 14
8 6 4 2 2 4 5 6 11 14 11 8 10 12 9 7 6 4 5 4 6 6 3 7 6 7 9 11 8 4 5 10 11 12 11 10 11 14 17 16 19 19 19 17
8 8 6 8 6 4 4 6 7 7 11 7 10 8 6 8 6 7 7 5 4 4 7 6 5 6 7 10 10 5 6 7 10 11 12 12 10 10 14 17 19 21 20 17
5 7 12 11 10 8 7 6 6 8 11 14 9 8 8 7 8 10 11 13 11 6 7 8 8 6 5 7 10 10 7 8 13 10 11 14 14 12 14 18 19 20 21 18

GFSNW_700_spd_012.txt.gz
Wind_Speed
25 24 23 24 22 16 13 12 17 15 13 8 13 9 17 18 16 15 15 9 10 17 26 13 14 11 2 12 11 21 12 6 10 18 9 8 16 14 18 9 8 13 18 31
25 23 22 29 28 11 9 14 18 18 12 7 5 5 18 21 16 11 9 12 11 9 19 8 9 11 13 20 17 18 16 8 3 2 3 14 16 17 21 30 32 31 14 24
25 25 25 28 24 16 18 20 16 17 1 11 10 9 14 17 15 12 12 14 13 17 15 8 13 11 13 13 17 13 9 10 11 7 5 9 17 22 24 28 21 29 43 57
26 22 23 26 22 15 14 21 22 9 10 12 4 9 13 13 13 12 9 10 10 10 11 7 10 8 8 12 17 18 17 13 15 20 22 23 25 23 21 30 38 35 51 46
32 20 20 23 23 17 11 15 15 14 16 7 14 7 9 10 9 8 6 6 10 11 8 6 9 10 7 6 9 14 15 10 12 25 9 8 19 21 23 26 24 28 30 35
38 23 16 14 15 13 11 7 15 11 16 10 4 4 4 5 4 3 6 8 7 9 11 10 9 11 9 8 10 9 13 9 10 8 10 20 9 8 14 22 15 20 30 34
35 34 16 11 5 2 6 10 8 7 9 11 7 5 4 5 4 2 5 9 8 9 7 5 4 5 9 13 15 14 12 9 7 12 13 2 1 16 19 21 10 15 25 23
33 33 28 10 7 3 4 11 9 6 8 8 7 7 6 8 6 2 3 7 8 6 2 1 1 3 3 5 11 17 16 13 4 4 9 16 3 10 24 19 11 19 20 15
28 32 33 23 11 14 10 10 12 12 11 11 8 8 8 7 5 4 2 3 4 5 1 2 3 3 0 2 1 6 13 15 11 3 4 3 0 18 22 16 7 23 17 13
24 25 29 33 21 16 19 16 14 17 18 17 16 13 10 10 8 7 5 2 4 8 6 3 3 3 4 3 4 6 11 14 22 19 7 13 9 11 17 6 12 18 11 12
23 25 25 28 31 20 22 22 21 19 21 18 22 21 16 11 8 4 4 0 3 4 6 3 3 3 3 6 8 5 9 9 7 12 7 9 3 16 12 16 16 14 9 8
26 27 26 27 28 27 21 26 26 24 25 20 26 24 21 16 16 10 5 3 3 3 3 2 3 4 6 6 5 10 8 9 6 9 6 5 15 18 15 15 16 9 2 1
28 30 29 29 26 26 24 19 26 26 24 21 21 23 22 22 22 18 7 6 6 7 5 7 6 6 9 9 12 15 10 13 18 12 4 7 15 13 11 10 11 4 2 2
31 33 33 32 25 25 26 22 19 25 20 18 12 21 23 25 25 20 13 11 10 9 9 10 11 11 11 11 13 16 14 13 9 15 9 7 9 13 10 7 5 4 8 5
33 36 37 32 28 28 28 24 19 22 23 13 18 15 22 24 25 19 15 12 13 12 11 12 13 14 20 19 19 26 20 22 18 13 10 13 15 14 9 6 3 4 6 7
34 38 35 32 32 28 25 19 16 23 31 7 19 11 15 19 23 18 14 12 13 14 14 15 18 13 16 12 17 21 11 15 16 19 21 17 16 13 8 5 4 4 9 7
35 36 31 29 22 14 11 7 6 22 30 10 9 9 13 14 18 20 15 14 14 14 15 19 21 18 20 26 33 20 15 18 20 22 20 17 15 10 8 6 5 4 6 7
34 30 23 18 14 5 3 13 11 16 22 9 6 7 9 15 15 15 13 14 12 13 14 17 19 19 21 19 11 4 11 19 22 19 18 18 16 13 10 9 7 6 5 5
29 25 16 13 10 5 10 12 14 17 14 7 7 7 9 16 11 9 8 9 6 8 13 12 13 16 12 8 8 7 6 11 13 17 19 19 16 15 13 11 9 8 7 6
22 16 9 6 8 14 11 9 7 16 4 8 13 10 7 14 10 9 5 4 6 4 6 9 10 8 7 11 10 15 15 10 8 10 14 17 17 16 16 16 15 11 9 7
12 19 21 19 16 12 8 6 5 5 5 10 13 10 13 13 11 9 6 2 3 3 2 4 5 6 8 10 12 15 14 17 12 8 11 12 16 19 16 14 14 15 13 10
2 5 8 7 4 4 4 4 5 5 5 13 15 14 12 11 9 4 3 3 3 4 4 5 2 3 10 13 13 10 13 11 16 8 4 7 12 16 17 15 14 16 17 13
10 8 6 4 2 2 6 7 7 6 12 15 20 17 13 10 7 3 3 4 4 5 5 3 2 9 13 14 12 9 9 8 15 12 8 10 14 19 18 15 17 19 15 14
11 8 5 3 4 4 4 8 12 13 14 11 13 16 12 14 8 5 4 5 5 3 3 1 6 8 10 13 12 7 6 4 6 16 11 9 11 8 17 16 21 21 10 11
8 7 6 7 5 4 4 7 10 11 13 9 13 13 8 10 5 4 5 4 4 4 2 5 6 5 8 11 12 9 2 14 7 7 7 7 6 8 8 3 5 11 11 14
9 11 8 8 7 7 6 6 9 11 11 9 11 10 6 9 6 7 8 5 5 4 3 5 3 4 4 8 12 13 8 4 6 8 3 4 4 6 8 11 11 13 16 17
8 8 13 11 11 10 7 7 7 8 9 15 9 8 8 7 8 10 10 12 8 6 7 11 12 10 9 10 11 12 13 11 7 9 8 11 9 10 10 10 12 15 17 19

GFSNW_700_spd_015.txt.gz
Wind_Speed
28 32 33 32 27 15 13 15 24 19 16 8 5 3 6 28 16 18 15 5 14 23 24 15 17 10 5 14 11 24 13 6 10 15 4 5 15 17 18 6 5 12 9 20
28 31 34 28 27 16 12 18 23 18 14 8 12 9 23 20 16 13 12 7 2 17 21 11 11 12 9 13 14 21 16 8 3 3 4 12 13 15 18 21 26 28 8 16
26 28 31 24 22 19 17 17 14 17 13 9 11 16 13 16 18 17 16 17 21 26 10 6 14 14 13 16 15 12 9 7 6 6 4 4 11 19 21 23 20 29 43 49
28 21 25 18 16 19 17 12 9 11 12 10 10 12 10 15 16 16 18 19 14 14 9 12 12 11 14 16 20 11 14 9 12 16 17 18 21 23 23 28 35 30 49 45
31 18 17 16 12 9 10 11 17 17 16 14 13 17 16 13 10 10 10 17 14 13 10 5 11 9 11 9 20 19 18 9 11 17 5 5 14 14 14 18 22 31 34 41
25 25 13 9 6 8 3 13 13 6 7 8 7 9 7 7 7 8 8 11 11 7 10 8 9 8 7 5 8 11 14 8 6 5 6 15 7 0 8 15 15 18 25 30
23 23 21 10 5 1 5 5 9 11 14 7 3 5 5 6 3 4 7 7 7 8 8 7 7 7 10 9 8 10 8 8 6 8 9 2 4 5 13 18 14 13 24 17
20 22 21 19 11 7 5 11 11 7 12 13 9 8 8 7 5 3 7 9 10 7 6 6 4 4 7 10 15 14 13 11 4 3 8 14 2 5 14 21 16 14 21 18
16 18 23 20 18 14 14 14 12 16 11 13 10 9 7 8 9 7 5 6 10 8 6 7 5 5 4 4 4 11 12 13 12 2 4 4 6 9 16 18 7 21 20 19
16 16 18 22 25 21 16 16 18 17 21 17 15 15 13 11 9 6 7 7 9 10 8 7 7 5 5 4 5 9 12 13 20 15 8 11 6 7 15 6 11 21 20 15
16 17 18 19 20 25 26 17 17 23 27 23 26 21 18 17 13 9 6 6 5 11 10 6 4 4 5 5 7 6 10 10 9 15 8 9 2 12 12 21 18 17 12 7
19 20 21 22 22 23 22 23 21 21 25 21 31 30 26 20 16 11 11 7 8 6 8 6 5 3 3 4 4 8 10 11 6 11 5 4 8 16 19 17 15 15 6 5
21 24 26 28 29 29 25 21 21 21 22 26 30 30 30 25 19 18 15 9 8 7 6 7 5 5 7 6 6 13 13 12 17 13 3 1 10 15 13 16 12 10 5 5
23 26 30 32 36 30 27 23 22 19 19 22 20 31 33 29 26 25 18 11 10 7 8 9 10 9 8 10 12 19 18 15 12 18 17 16 9 11 17 13 9 7 6 7
24 28 32 35 33 28 28 23 20 18 13 11 25 22 29 28 29 29 25 17 14 11 12 11 10 12 14 17 20 20 13 18 23 23 12 11 13 15 17 11 8 6 6 7
25 30 35 32 27 21 18 15 10 15 15 23 22 16 20 25 28 29 24 19 18 14 12 13 14 11 14 12 19 18 6 8 9 17 20 20 20 18 16 10 7 6 6 7
27 32 31 26 18 13 5 3 2 9 20 20 8 14 18 22 25 26 23 19 14 13 12 15 16 14 16 23 25 16 11 17 15 17 18 21 19 17 13 10 8 6 7 7
28 29 25 16 11 8 1 9 7 5 10 13 4 12 18 19 21 23 23 17 14 12 12 12 12 10 10 6 11 7 6 12 19 20 23 20 19 16 14 11 9 9 7 5
23 20 14 11 9 9 10 6 6 6 12 4 7 16 17 20 17 17 16 14 8 9 11 9 7 8 5 12 10 12 12 10 10 18 21 20 20 19 17 13 10 8 7 6
11 14 19 17 16 14 14 10 6 9 3 4 11 9 14 21 15 13 9 8 10 6 7 7 5 3 2 7 10 13 8 11 13 12 9 10 14 16 14 13 16 15 10 9
5 8 10 9 8 7 5 5 3 1 3 7 13 9 17 16 14 17 9 6 6 5 5 5 5 6 4 9 14 13 11 9 10 14 9 8 11 15 18 17 19 22 19 11
10 8 12 7 2 1 2 4 5 4 2 10 12 12 14 16 13 8 7 5 6 4 7 4 4 3 8 12 14 12 9 11 11 13 9 2 8 8 14 17 15 13 16 14
10 13 8 4 4 4 5 5 5 5 9 16 16 13 12 12 7 4 4 4 4 3 4 3 3 4 9 12 12 9 5 11 16 15 10 7 9 13 12 22 18 15 15 16
9 10 6 4 5 5 5 7 8 9 11 13 18 17 13 10 9 4 3 5 4 4 4 4 2 3 6 10 12 7 4 7 7 14 9 7 9 8 11 14 20 17 18 15
8 6 6 9 9 7 6 8 11 10 10 11 10 15 13 9 6 6 7 4 5 5 5 4 2 1 2 7 11 11 6 6 8 12 7 2 6 6 8 2 15 19 14 15
10 10 8 6 9 8 6 7 8 11 13 11 13 11 6 9 6 7 8 4 5 7 10 4 2 2 4 6 7 9 12 13 7 5 4 1 2 4 5 5 5 7 10 13
7 9 12 16 11 11 8 7 7 13 16 14 11 8 8 6 6 8 9 11 7 11 11 8 6 8 9 10 12 14 14 12 11 10 8 10 12 11 9 8 6 10 14 17

GFSNW_700_spd_018.txt.gz
Wind_Speed
29 29 29 25 23 22 21 23 27 20 13 15 15 16 24 21 21 16 12 3 12 25 24 15 17 13 6 9 15 24 11 6 6 11 5 3 12 20 17 6 4 7 3 15
24 23 25 23 18 19 18 23 19 15 19 21 25 27 27 21 17 13 8 5 11 19 22 12 11 12 5 15 13 23 15 6 4 3 9 17 15 21 24 22 20 16 3 12
23 18 15 18 16 15 17 16 13 15 21 19 15 20 20 18 16 12 9 10 13 23 15 8 14 15 11 13 12 17 11 7 6 6 2 6 13 14 17 19 15 19 31 42
24 14 12 9 10 9 8 8 11 11 14 13 12 10 14 14 15 17 17 22 24 15 10 13 17 15 15 16 15 15 13 7 13 15 16 17 19 20 20 25 31 27 39 40
18 18 8 6 8 6 3 7 13 14 13 14 13 17 12 11 10 11 14 14 12 7 15 3 16 15 16 13 21 18 16 8 9 15 11 14 19 18 17 20 24 33 32 35
14 15 14 6 4 5 1 6 8 6 8 8 8 10 7 7 7 8 14 12 11 9 7 6 6 6 12 7 10 23 17 9 4 5 3 12 14 5 9 9 14 17 22 24
13 12 13 12 6 5 6 8 8 6 7 6 6 4 5 6 4 5 9 9 10 8 10 8 7 5 7 7 8 11 9 11 8 8 8 2 7 4 4 9 14 13 16 18
11 14 12 13 12 10 8 10 13 10 9 14 11 10 8 9 7 4 9 9 9 9 9 9 6 8 7 11 12 12 12 10 5 4 7 15 8 7 6 13 12 9 20 19
13 12 12 14 13 13 11 9 16 18 19 18 18 15 13 11 12 9 7 12 13 9 11 9 7 6 7 7 5 14 13 13 14 4 3 4 3 4 9 14 5 20 24 20
14 12 13 14 14 18 18 17 16 16 24 18 19 17 17 15 13 12 11 11 12 13 12 11 7 6 8 6 7 10 15 15 18 14 6 11 6 9 10 5 9 23 21 15
16 14 15 15 18 18 19 26 25 23 23 20 27 24 22 21 18 15 10 11 13 15 14 9 8 7 10 7 8 8 14 11 11 13 7 10 2 4 8 15 17 19 19 12
18 18 19 18 20 21 24 24 29 31 34 19 32 35 31 26 26 21 16 13 11 10 12 10 6 7 7 8 4 11 10 13 5 11 5 6 10 14 14 16 19 18 15 8
20 21 22 23 24 27 30 29 28 32 36 36 31 39 34 34 29 23 21 15 15 10 10 8 8 7 9 8 10 12 12 14 17 13 7 7 7 11 15 14 19 16 10 6
19 21 24 28 30 33 34 33 27 29 32 35 28 30 49 40 32 27 20 19 15 11 9 9 7 7 8 9 10 12 13 16 20 22 20 19 16 11 11 14 15 12 8 7
19 22 26 31 34 33 30 24 21 20 24 19 12 25 40 43 36 24 26 19 15 13 10 9 10 11 11 14 15 10 8 6 13 25 19 19 16 14 13 15 13 11 8 7
21 25 29 33 33 26 18 15 11 13 15 21 19 22 34 37 39 31 27 25 18 13 11 12 14 12 14 9 13 18 11 13 17 20 21 26 22 20 17 15 12 11 9 7
21 26 31 27 21 14 9 5 5 5 9 13 9 6 28 29 31 33 29 27 22 16 15 15 14 13 16 17 19 7 6 7 16 19 20 20 18 19 17 15 12 11 9 7
21 23 18 15 10 7 2 2 4 6 4 2 6 2 31 29 28 28 29 26 20 16 16 15 11 10 10 10 8 13 15 11 5 18 19 19 20 19 17 15 13 11 9 9
13 11 16 13 13 14 9 8 5 10 4 5 8 6 27 27 24 22 25 21 17 14 15 14 10 10 11 11 10 8 12 13 14 12 21 20 21 20 20 17 17 14 14 10
1 6 8 9 9 13 10 10 4 5 8 8 6 10 22 23 23 21 17 17 16 9 7 6 12 15 16 12 12 13 14 11 12 12 13 15 16 15 17 17 16 18 17 16
7 5 7 9 8 5 1 2 1 1 3 5 9 12 18 21 21 19 10 9 7 5 6 9 6 7 14 10 13 16 17 13 11 11 12 11 9 10 12 16 17 19 19 23
9 15 14 12 10 3 4 3 3 1 2 5 8 15 13 18 17 8 9 7 7 5 10 5 5 8 6 7 10 13 12 9 15 10 10 12 6 5 8 10 16 19 21 22
10 11 11 8 6 6 5 3 3 3 5 11 8 11 13 16 10 5 7 5 5 5 6 5 6 5 1 4 9 9 8 11 14 15 15 14 10 10 9 12 17 20 20 14
11 7 7 6 6 6 7 9 9 8 7 12 13 11 9 11 9 4 3 4 5 5 6 6 11 5 2 4 8 6 5 8 16 10 14 14 8 8 7 14 15 21 23 19
7 6 6 10 12 8 8 8 11 11 9 10 16 15 12 10 5 5 6 4 6 7 7 12 10 8 5 1 3 8 11 9 8 10 13 9 6 3 6 11 9 16 23 22
16 10 10 9 9 10 10 5 8 13 14 12 10 8 7 8 5 6 7 4 6 6 12 10 10 8 5 5 6 8 8 8 9 9 8 8 3 3 7 9 9 7 15 15
10 12 13 14 16 17 10 7 8 11 17 16 11 9 8 7 6 8 9 12 6 7 14 12 9 6 6 8 9 9 9 10 9 9 8 7 10 11 9 11 10 5 6 12